Wind_Speed
40 38 37 38 39 38 39 38 38 34 34 31 31 31 30 30 30 30 30 30 29 28 28 28 28 29 29 28 30 31 32 33 34 34 34 35 35 36 38 38 38 40 42 42
42 40 40 39 39 40 39 39 39 38 35 33 33 32 31 31 31 31 31 30 29 29 27 27 27 28 29 29 29 30 32 32 31 32 33 34 35 35 36 37 38 39 41 42
40 40 40 41 37 37 38 39 39 38 35 35 35 33 32 32 32 31 31 30 30 30 28 28 27 28 29 29 30 32 32 32 32 32 33 34 35 35 36 37 38 39 41 42
39 41 42 40 38 37 37 37 38 37 36 36 35 35 34 33 32 32 31 31 31 30 29 29 29 28 29 29 30 32 32 32 32 33 34 35 36 37 37 38 40 41 42 42
37 39 40 38 36 36 37 37 37 36 35 35 36 35 35 33 33 33 32 31 31 31 30 30 30 30 30 30 31 32 33 33 34 34 35 36 37 37 37 38 40 42 43 43
34 36 37 36 35 35 36 37 35 35 35 35 35 36 34 34 33 33 33 33 33 32 31 31 32 32 32 32 32 32 34 34 34 36 36 36 36 37 38 38 39 40 41 42
33 34 35 34 34 34 35 35 35 35 35 35 35 36 35 35 35 34 34 34 33 33 32 32 32 32 32 32 32 33 34 35 35 36 36 36 36 36 37 37 37 38 38 40
32 33 33 30 32 33 32 33 35 35 35 36 36 36 35 35 35 34 35 34 34 33 32 33 33 33 33 33 33 33 33 34 34 35 35 36 36 36 36 37 36 36 36 37
30 30 30 30 31 32 33 33 33 34 34 35 35 35 35 35 35 35 35 34 34 33 33 33 33 33 34 35 35 34 34 34 35 35 35 35 36 36 36 36 35 36 36 36
27 28 28 28 30 31 32 32 32 32 32 33 33 34 35 35 36 36 35 34 34 34 34 34 34 35 35 35 35 35 35 35 35 35 35 36 36 36 36 36 36 36 36 36
26 26 28 29 29 29 30 31 31 31 30 30 32 32 33 34 35 35 36 35 35 35 35 34 34 35 35 35 35 35 35 35 35 35 36 36 36 36 36 36 36 36 36 36
23 23 25 26 28 29 28 28 29 29 29 30 31 32 33 33 34 35 36 36 36 35 35 35 35 35 35 35 35 35 35 35 35 35 35 35 35 35 35 36 36 36 36 37
25 25 27 28 29 30 29 28 28 29 29 30 31 32 32 32 32 33 34 35 35 35 36 36 36 36 35 35 35 35 35 36 36 36 36 35 35 35 35 35 35 36 37 38
26 26 27 28 29 30 30 29 29 29 29 29 30 30 32 33 33 34 34 34 34 35 35 34 34 34 35 35 35 35 35 35 36 36 36 36 36 36 36 36 37 37 38 38
25 26 27 28 29 30 30 30 30 30 30 30 31 31 32 33 34 34 34 34 34 35 35 35 35 35 34 34 34 35 35 35 35 36 36 36 36 36 36 37 37 38 38 39
23 25 27 28 29 30 31 31 31 31 31 31 32 32 32 33 33 34 35 34 34 34 35 35 35 34 34 34 34 34 34 34 34 35 35 35 36 36 37 38 38 38 39 39
21 23 25 26 27 29 30 31 31 31 32 32 32 32 32 33 33 33 34 34 34 33 34 34 35 34 34 34 34 33 33 33 34 34 34 36 36 37 37 38 38 39 39 40
20 22 23 24 25 26 27 29 30 30 30 31 32 32 32 33 33 33 33 33 33 33 33 33 33 33 33 34 33 33 33 33 34 35 35 35 35 36 37 38 39 40 41 41
20 20 22 23 24 25 26 28 29 30 30 31 31 31 32 32 32 32 32 32 31 32 31 31 31 31 32 32 33 33 33 34 34 35 35 35 36 37 38 39 39 40 40 41
21 21 21 22 23 24 26 28 29 30 31 31 31 31 31 31 31 31 31 31 30 30 30 30 30 30 30 31 31 32 33 33 34 35 36 36 37 38 38 39 40 40 40 40
21 22 22 22 23 25 26 27 28 28 29 30 30 30 30 30 30 29 29 29 29 28 28 28 29 29 29 30 30 31 32 34 34 35 36 36 36 37 37 37 38 38 38 38
22 22 22 23 23 24 25 26 26 27 27 28 28 29 29 29 29 29 29 28 29 29 28 28 29 29 30 30 31 31 32 33 34 34 35 35 36 36 36 36 36 35 36 36
21 22 22 22 23 24 24 25 25 25 26 26 27 27 28 28 29 29 29 29 29 29 29 30 30 30 30 30 30 30 31 31 32 32 33 34 34 34 33 33 33 32 32 32
21 21 22 22 22 23 24 24 24 24 25 26 26 27 27 28 28 29 29 29 29 29 29 29 30 30 30 30 30 30 30 30 31 30 30 30 30 30 29 29 29 30 30 30
20 21 21 21 22 22 22 23 23 24 24 24 25 25 26 26 27 27 27 28 28 28 28 28 29 29 29 29 29 29 29 28 28 27 27 27 27 27 27 27 27 27 27 27
20 20 21 21 21 21 21 21 21 22 23 23 24 24 24 24 24 24 25 26 26 27 27 27 27 27 27 27 27 26 26 26 26 26 25 25 25 25 25 25 25 25 25 24
18 19 19 19 19 19 20 20 21 21 22 22 22 22 22 21 21 22 23 23 23 24 24 24 25 25 25 25 25 25 25 25 24 24 24 23 23 23 23 23 23 23 22 22
Wind_Direction
252 252 252 251 250 250 253 255 256 258 261 262 265 264 264 264 265 268 270 270 270 270 269 270 268 264 262 259 258 257 257 258 258 257 255 253 252 251 251 252 251 252 254 254
251 252 252 251 251 252 253 255 257 258 258 260 261 262 263 263 264 265 266 267 266 268 268 270 268 264 261 259 259 258 258 258 258 257 255 255 254 252 251 253 254 255 256 257
250 251 252 252 253 255 256 257 259 259 259 258 258 260 261 262 263 265 265 265 264 266 268 268 267 263 261 260 259 257 255 256 256 256 256 256 255 254 254 255 256 257 257 258
251 251 254 255 254 256 257 258 259 258 257 256 257 258 259 261 262 264 264 263 262 263 266 267 267 265 263 262 261 257 256 256 256 256 255 254 255 256 258 258 258 258 259 260
251 253 255 255 255 257 258 258 257 257 256 253 254 256 257 259 261 262 263 262 262 262 264 265 265 266 265 263 261 258 257 258 257 256 257 257 257 259 261 261 261 261 261 261
251 253 254 256 257 258 258 258 257 257 254 252 253 256 258 259 261 262 262 263 263 263 264 265 266 265 264 263 261 259 258 258 259 258 259 259 259 261 263 264 263 262 261 262
250 253 256 257 257 257 256 256 256 256 255 254 255 256 257 258 260 261 262 262 263 264 264 265 266 265 264 262 261 261 260 260 261 261 260 261 261 262 264 264 264 264 264 265
248 250 252 255 254 253 256 256 257 257 256 256 256 256 257 257 258 259 261 262 263 263 263 263 264 265 264 263 263 262 262 262 262 262 261 261 261 262 263 263 264 265 266 265
249 249 250 251 251 252 253 254 254 255 255 255 255 255 256 257 258 259 260 261 261 262 262 263 262 264 265 264 264 262 262 262 263 264 262 261 262 263 264 265 265 266 266 267
249 247 246 248 250 250 251 252 253 253 254 253 254 254 256 256 257 258 259 259 260 260 261 262 262 263 264 264 263 263 263 264 264 264 263 262 263 264 265 266 266 266 266 267
251 250 249 249 251 252 253 254 254 254 254 255 255 255 257 257 258 259 259 260 261 261 262 263 263 263 263 264 265 265 265 264 264 264 264 264 264 265 265 266 265 265 266 267
249 249 248 246 247 249 252 253 254 254 255 256 258 259 259 259 259 259 259 260 260 260 261 263 263 263 264 265 265 265 265 265 265 265 264 264 264 264 264 264 265 264 266 267
251 252 251 250 249 249 250 251 254 257 258 259 260 261 261 260 259 260 259 259 259 261 262 263 263 264 264 265 265 265 265 265 265 265 264 264 264 264 263 263 263 264 266 268
257 256 254 253 251 251 252 254 256 258 259 261 262 263 264 262 260 259 259 259 260 260 262 263 264 264 265 266 266 266 267 266 265 265 264 263 263 263 263 263 264 266 267 268
260 258 256 253 252 254 254 255 257 258 260 262 263 264 264 263 262 261 261 262 264 262 262 262 263 265 265 266 266 266 266 266 265 265 264 263 263 262 262 263 264 266 267 268
262 261 259 257 256 256 257 258 258 260 262 264 264 265 265 265 264 263 264 264 265 265 263 263 264 264 265 265 266 265 265 265 265 265 263 263 263 264 265 265 267 268 269 270
265 262 260 258 257 256 255 256 258 260 261 263 264 265 266 265 265 266 267 267 266 266 265 264 264 264 265 266 266 265 264 264 265 264 265 265 265 266 267 268 268 269 271 272
270 266 263 262 260 258 257 258 258 258 260 262 264 265 266 266 267 268 267 266 266 265 265 265 265 264 265 266 266 266 266 266 266 266 267 267 268 269 269 269 270 270 271 272
276 274 269 267 267 266 265 264 262 262 262 263 264 265 266 267 267 267 267 265 264 264 264 265 266 267 267 267 266 267 267 267 267 267 267 269 270 271 271 272 272 273 273 273
277 277 274 272 271 271 271 270 268 267 266 265 265 266 266 266 266 266 266 265 263 263 263 265 266 268 268 267 267 266 267 268 269 269 269 270 272 273 273 273 274 274 274 274
279 279 277 275 276 276 275 273 272 271 269 268 267 266 266 266 266 265 265 264 262 262 263 265 266 267 268 269 269 270 270 270 271 271 271 272 273 274 274 274 274 274 275 275
281 280 278 277 278 278 278 276 274 273 271 270 269 269 267 266 266 265 265 264 263 264 265 265 265 267 269 271 271 272 273 273 273 272 272 272 274 274 275 275 276 276 276 276
284 281 279 279 279 280 281 279 276 273 272 272 271 271 269 268 267 266 266 266 266 266 266 267 266 268 270 271 272 273 274 275 275 274 273 273 274 274 274 275 276 276 277 277
286 282 280 281 282 283 281 279 276 275 275 275 275 274 271 270 269 268 268 269 269 268 268 268 268 268 270 271 272 273 274 275 275 275 274 274 274 274 274 274 274 275 276 277
289 287 285 285 285 284 282 280 279 278 278 279 279 277 274 271 269 269 269 269 269 268 269 269 268 269 270 270 271 272 273 274 274 273 273 273 273 274 274 274 275 275 276 276
295 292 289 286 285 284 283 282 282 282 282 282 281 281 279 275 272 270 269 269 269 269 269 269 268 269 269 269 269 270 271 271 272 272 272 271 272 274 274 274 274 275 276 277
299 298 296 292 290 287 285 283 283 283 284 284 282 281 280 278 276 273 271 270 269 269 270 270 270 269 268 268 269 270 269 269 269 269 270 271 272 273 274 275 274 274 274 275
Height
5563 5567 5569 5572 5575 5578 5580 5582 5584 5588 5590 5593 5593 5593 5594 5595 5595 5595 5595 5595 5595 5594 5594 5593 5593 5592 5592 5593 5593 5594 5595 5597 5598 5599 5600 5602 5603 5605 5607 5609 5611 5613 5615 5616
5551 5555 5557 5559 5563 5566 5569 5572 5574 5577 5580 5583 5583 5584 5585 5585 5586 5586 5587 5586 5586 5586 5586 5585 5584 5584 5584 5585 5585 5586 5587 5588 5589 5590 5591 5593 5594 5596 5597 5599 5601 5602 5604 5605
5540 5544 5544 5547 5554 5556 5559 5561 5564 5566 5570 5571 5572 5574 5575 5576 5576 5577 5577 5577 5577 5577 5577 5577 5576 5576 5576 5576 5576 5577 5578 5580 5580 5582 5583 5584 5585 5587 5588 5589 5590 5591 5593 5594
5529 5533 5533 5541 5544 5546 5548 5550 5553 5555 5558 5560 5562 5564 5565 5566 5566 5567 5568 5568 5568 5568 5568 5568 5568 5568 5567 5567 5568 5569 5570 5571 5572 5573 5574 5574 5576 5577 5578 5579 5579 5580 5581 5582
5518 5520 5523 5530 5533 5535 5537 5539 5542 5544 5547 5549 5550 5552 5555 5556 5557 5558 5558 5559 5559 5559 5559 5559 5559 5559 5559 5559 5559 5560 5561 5562 5563 5563 5564 5565 5565 5566 5567 5568 5568 5569 5570 5570
5507 5510 5513 5520 5522 5524 5527 5528 5531 5533 5535 5537 5539 5542 5545 5546 5547 5547 5548 5549 5549 5550 5550 5550 5550 5550 5550 5551 5551 5551 5552 5553 5553 5554 5555 5555 5556 5556 5557 5557 5557 5558 5558 5559
5498 5499 5503 5509 5511 5513 5516 5519 5520 5521 5524 5526 5528 5531 5533 5534 5536 5537 5538 5538 5539 5540 5540 5540 5540 5540 5541 5541 5542 5542 5543 5543 5544 5544 5545 5545 5546 5546 5547 5547 5547 5547 5547 5547
5488 5490 5496 5499 5501 5503 5504 5506 5508 5510 5513 5515 5517 5519 5521 5523 5525 5526 5527 5528 5529 5529 5530 5530 5531 5531 5531 5532 5532 5532 5533 5533 5533 5534 5534 5535 5535 5536 5536 5536 5536 5536 5536 5536
5479 5483 5485 5487 5489 5491 5493 5496 5498 5500 5502 5504 5506 5509 5510 5512 5514 5515 5516 5517 5518 5519 5520 5521 5521 5521 5521 5521 5522 5522 5523 5523 5523 5524 5524 5524 5525 5525 5525 5525 5525 5525 5525 5525
5471 5473 5476 5478 5480 5482 5484 5486 5488 5490 5492 5494 5496 5498 5500 5501 5503 5504 5506 5507 5508 5509 5509 5510 5511 5511 5511 5511 5511 5512 5512 5512 5513 5513 5513 5514 5514 5514 5515 5515 5515 5514 5515 5515
5463 5466 5468 5470 5471 5473 5475 5477 5479 5481 5482 5484 5485 5487 5489 5491 5492 5493 5495 5496 5497 5498 5498 5499 5500 5500 5500 5501 5501 5501 5501 5501 5501 5502 5502 5503 5503 5504 5504 5504 5504 5504 5504 5504
5456 5458 5459 5461 5463 5464 5466 5468 5470 5471 5473 5474 5476 5477 5479 5480 5481 5482 5484 5485 5486 5487 5488 5488 5489 5489 5490 5490 5490 5490 5491 5491 5491 5491 5492 5492 5492 5493 5493 5493 5493 5493 5494 5494
5449 5450 5451 5452 5454 5456 5457 5459 5461 5463 5464 5465 5466 5467 5468 5469 5470 5471 5473 5474 5475 5476 5476 5477 5478 5478 5479 5479 5479 5479 5480 5480 5480 5481 5481 5481 5481 5482 5482 5482 5482 5483 5483 5483
5441 5442 5443 5444 5446 5447 5449 5450 5452 5454 5455 5456 5457 5457 5458 5459 5460 5461 5462 5463 5464 5464 5465 5466 5467 5467 5467 5468 5468 5468 5469 5469 5469 5470 5470 5470 5471 5471 5471 5471 5472 5471 5471 5471
5433 5433 5435 5436 5437 5439 5440 5442 5443 5445 5446 5447 5447 5448 5449 5449 5450 5451 5451 5452 5453 5453 5454 5455 5456 5457 5457 5457 5457 5457 5457 5458 5458 5458 5459 5459 5459 5460 5460 5460 5460 5460 5460 5459
5425 5426 5427 5428 5429 5430 5432 5433 5434 5435 5436 5437 5438 5438 5439 5439 5439 5440 5441 5441 5442 5443 5443 5444 5445 5446 5446 5446 5446 5446 5446 5447 5447 5447 5447 5448 5448 5448 5448 5449 5449 5449 5448 5448
5418 5418 5419 5420 5421 5422 5423 5424 5425 5426 5427 5427 5428 5428 5429 5429 5429 5430 5430 5430 5431 5432 5432 5433 5434 5434 5435 5435 5435 5435 5436 5436 5436 5436 5436 5437 5437 5437 5437 5437 5437 5437 5436 5435
5411 5411 5411 5412 5412 5413 5414 5415 5416 5416 5417 5418 5418 5418 5418 5418 5419 5419 5419 5420 5420 5421 5421 5422 5422 5423 5423 5424 5424 5424 5424 5425 5425 5425 5425 5425 5425 5425 5425 5425 5424 5424 5423 5422
5405 5404 5404 5404 5404 5405 5405 5406 5406 5407 5407 5407 5408 5408 5408 5408 5408 5409 5409 5409 5410 5411 5411 5411 5412 5412 5412 5412 5413 5413 5413 5413 5413 5413 5414 5414 5413 5413 5412 5412 5411 5411 5410 5409
5398 5397 5397 5397 5397 5397 5397 5397 5397 5397 5397 5398 5398 5398 5398 5398 5398 5398 5399 5399 5399 5400 5401 5402 5402 5402 5402 5402 5402 5403 5403 5402 5402 5402 5402 5402 5402 5401 5400 5399 5398 5398 5397 5396
5391 5390 5390 5390 5389 5389 5388 5388 5388 5388 5388 5388 5388 5388 5388 5388 5388 5388 5389 5389 5390 5390 5391 5392 5392 5392 5392 5392 5392 5392 5392 5392 5392 5391 5391 5390 5390 5389 5388 5387 5386 5385 5384 5383
5384 5383 5383 5382 5381 5381 5380 5379 5379 5379 5379 5378 5378 5379 5379 5379 5379 5379 5379 5380 5380 5381 5381 5382 5382 5382 5382 5382 5382 5381 5381 5381 5380 5380 5379 5378 5378 5377 5376 5375 5374 5373 5372 5371
5377 5376 5375 5374 5374 5373 5372 5371 5371 5370 5370 5370 5370 5369 5369 5369 5370 5370 5370 5370 5371 5371 5371 5371 5372 5372 5372 5372 5371 5371 5370 5370 5369 5368 5368 5367 5366 5365 5364 5364 5363 5362 5361 5360
5370 5369 5368 5367 5366 5365 5364 5363 5363 5362 5362 5361 5361 5360 5360 5360 5360 5360 5360 5361 5361 5361 5361 5361 5361 5362 5362 5362 5361 5361 5360 5359 5358 5358 5357 5356 5355 5355 5354 5353 5353 5352 5351 5350
5363 5362 5361 5360 5359 5358 5357 5356 5355 5354 5354 5353 5352 5351 5351 5351 5351 5350 5351 5351 5351 5351 5351 5351 5351 5352 5351 5351 5351 5350 5350 5349 5348 5348 5347 5347 5346 5345 5345 5344 5343 5343 5342 5341
5357 5356 5354 5353 5352 5351 5349 5349 5348 5347 5346 5345 5344 5343 5342 5342 5341 5341 5341 5341 5341 5341 5341 5342 5342 5342 5341 5341 5341 5341 5340 5340 5339 5339 5338 5338 5337 5336 5336 5335 5335 5334 5333 5332
5351 5350 5348 5346 5345 5344 5343 5342 5341 5340 5338 5337 5336 5335 5334 5334 5333 5333 5333 5332 5332 5332 5332 5332 5332 5332 5332 5332 5332 5332 5331 5331 5331 5330 5330 5329 5329 5328 5327 5327 5326 5326 5325 5325